Miscellaneous Local Product
Issued by NWS Hastings, NE

Home | Current Version | Previous Version | Text Only | Print | Product List | Glossary On
Versions: 1 2 3 4 5 6 7 8 9 10 11 12 13 14 15 16 17 18 19 20 21 22 23 24 25 26 27 28 29 30 31 32 33 34 35 36 37 38 39 40 41 42 43 44 45 46 47 48 49 50
000
AXUS43 KGID 041002
MISGRI

GID CWA HOURLY WEATHER ROUNDUP
NATIONAL WEATHER SERVICE HASTINGS NE
500 AM CDT SAT APR 04 2020

NOTE: "FAIR" INDICATES FEW OR NO CLOUDS BELOW 12,000 FEET WITH NO
SIGNIFICANT WEATHER AND/OR OBSTRUCTIONS TO VISIBILITY.

...SOUTH CENTRAL NEBRASKA...

CITY           SKY/WX    TMP DP  RH WIND       PRES   REMARKS
GRAND ISLAND   CLOUDY    25  19  78 NE5       30.25F WCI  19
KEARNEY        CLOUDY    22  21  96 NE3       30.23F
HASTINGS       CLOUDY    24  20  84 NE6       30.24F WCI  17
ORD            CLOUDY    22  20  92 S6        30.22S WCI  14
YORK           CLOUDY    25  23  93 N5        30.25F WCI  19
AURORA         CLOUDY    26  23  88 CALM      30.25F
LEXINGTON      FAIR      21  20  96 CALM      30.21F
HOLDREGE       FAIR      20  18  94 CALM      30.22F
HEBRON         CLOUDY    27  23  85 N7        30.26S WCI  19

...NEBRASKA PANHANDLE...

CITY           SKY/WX    TMP DP  RH WIND       PRES   REMARKS
CHADRON        FAIR      32  18  56 S31G39    29.96F WCI  17
ALLIANCE       FAIR      28  18  66 S22       30.01F WCI  14
SCOTTSBLUFF    FAIR      32  17  54 SE18      30.00F WCI  20
SIDNEY         CLOUDY    28  16  60 S14       30.03F WCI  17

...WESTERN AND NORTH CENTRAL NEBRASKA...

CITY           SKY/WX    TMP DP  RH WIND       PRES   REMARKS
VALENTINE      FAIR      24  19  81 S14G21    30.14S WCI  12
AINSWORTH      FAIR      22  19  91 S10       30.16S WCI  11
ONEILL         FAIR      19  18  93 CALM      30.21F
BROKEN BOW     MOCLDY    19  16  88 CALM      30.19F
IMPERIAL       FAIR      26  20  77 S7        30.14F WCI  18
NORTH PLATTE   CLOUDY    20  17  88 CALM      30.18F
MCCOOK         CLOUDY    22  19  89 E3        30.19F

...EASTERN NEBRASKA...

CITY           SKY/WX    TMP DP  RH WIND       PRES   REMARKS
NORFOLK        FAIR      16  13  88 CALM      30.25S
SO SIOUX CITY  FAIR      23  19  85 N3        30.27F
TEKAMAH        CLOUDY    26  21  81 N8        30.27F WCI  18
COLUMBUS       MOCLDY    20  16  84 CALM      30.28R
ALBION         FAIR      18  16  93 CALM      30.25S
OMAHA EPPLEY   CLOUDY    28  23  81 NE7       30.28S WCI  21
OFFUTT AFB     CLOUDY    28  22  78 N7        30.26S WCI  21
MILLARD        CLOUDY    29  23  78 CALM      30.28S
LINCOLN        CLOUDY    26  21  81 N10       30.29S WCI  16
NEBRASKA CITY  CLOUDY    28  26  92 NE6       30.27S WCI  22
BEATRICE       CLOUDY    27  24  87 N8        30.27S WCI  19
FALLS CITY     CLOUDY    28  23  81 N9        30.27S WCI  19

...NORTHERN KANSAS...

CITY           SKY/WX    TMP DP  RH WIND       PRES   REMARKS
GOODLAND       FAIR      21  17  84 S9        30.11F WCI  11
HILL CITY      FAIR      19  16  88 N3        30.22F
PHILLIPSBURG   MOCLDY    21  19  93 CALM      30.25S
OBERLIN        FAIR      22  21  96 CALM      30.23F
SMITH CENTER   CLOUDY    21  21 100 CALM      30.25F
HAYS           FAIR      20  18  92 N5        30.22F WCI  13
RUSSELL        FAIR      20  17  88 NE6       30.21F WCI  12
CONCORDIA      CLOUDY    28  21  75 NE6       30.24F WCI  22
SALINA         CLOUDY    28  23  81 N9        30.25S WCI  19
TOPEKA         CLOUDY    30  25  81 N12       30.25F WCI  20



USA.gov is the U.S. government's official web portal to all federal, state and local government web resources and services.
  • National Weather Service
  • WSO Pago Pago Weather Service Office
  • Pago Pago, AS
  • (684) 699-9130
  • Page Author: PPG Webmaster
  • Incorrect Region Format!
  • Web Master's E-mail:
  • Page last modified: Mar 10th, 2020 21:02 UTC